Regional Weather Roundup
Issued by NWS

Home | Current Version | Previous Version | Graphics & Text | Print | Product List | Glossary On
Versions: 1 2 3 4 5 6 7 8 9 10 11 12 13 14 15 16 17 18 19 20 21 22 23 24 25 26 27 28 29 30 31 32 33 34 35 36 37 38 39 40 41 42 43 44 45 46 47 48 49 50
000
ASUS44 KMEG 261900
RWRTN
TENNESSEE HOURLY STATE WEATHER ROUNDUP
NATIONAL WEATHER SERVICE MEMPHIS TN
200 PM CDT SAT JUL 26 2014

TNZ002-004-019-021-049-052-054-088>092-262000-
WEST TENNESSEE

CITY           SKY/WX    TMP DP  RH WIND       PRES   REMARKS
MEMPHIS INTL   MOSUNNY   92  76  59 W7        29.99F HX 104
NWS MEMPHIS      N/A     91 N/A N/A MISG        N/A
JACKSON        MOSUNNY   89  75  63 SW8       29.99F HX  99
DYERSBURG      SUNNY     91  70  49 SW14      29.96F HX  97
UNION CITY     SUNNY     90  77  66 SW7       29.94F HX 102
PARIS          SUNNY     88  73  62 SW12      29.97F HX  96
LEXINGTON      PTSUNNY   88  73  62 W6        29.99F HX  96
SAVANNAH       MOSUNNY   88  75  66 VRB3      30.01F HX  97
$$

TNZ008-025-027-028-033-062-065-066-262000-
NORTH MIDDLE TENNESSEE

CITY           SKY/WX    TMP DP  RH WIND       PRES   REMARKS
NASHVILLE      MOSUNNY   89  67  47 SW9       29.99F HX  92
CLARKSVILLE    SUNNY     91  71  51 S10       29.95F HX  97
COOKEVILLE     SUNNY     88  70  55 SW7       30.03F HX  92
CROSSVILLE     MOSUNNY   81  62  52 SW5       30.08F
$$

TNZ061-075-076-078-094-096-097-262000-
SOUTH MIDDLE TENNESSEE

CITY           SKY/WX    TMP DP  RH WIND       PRES   REMARKS
FAYETTEVILLE   SUNNY     84  64  51 VRB5      30.04S
TULLAHOMA      SUNNY     84  64  51 VRB5      30.04F
WINCHESTER     SUNNY     84  66  54 CALM      30.05S
COLUMBIA       MOSUNNY   90  73  58 VRB7      30.00F HX  98
SHELBYVILLE    SUNNY     88  70  55 S7        30.02F HX  92
$$

TNZ017-018-042-046-047-262000-
NORTHEAST TENNESSEE

CITY           SKY/WX    TMP DP  RH WIND       PRES   REMARKS
TRI CITIES     CLOUDY    83  62  49 S8        30.06F
ELIZABETHTON   CLEAR     81  63  54 SW3       30.06F
$$

TNZ012-013-036-069-073-074-262000-
CENTRAL EAST TENNESSEE

CITY           SKY/WX    TMP DP  RH WIND       PRES   REMARKS
KNOXVILLE      MOSUNNY   84  66  54 VRB6      30.02F
OAK RIDGE      SUNNY     86  64  47 VRB5      30.04F
GATLINBURG     CLEAR     86  64  48 SW6       30.02F
$$

TNZ083-085-099-262000-
SOUTHEAST TENNESSEE

CITY           SKY/WX    TMP DP  RH WIND       PRES   REMARKS
CHATTANOOGA    MOSUNNY   89  61  38 VRB7      30.02F
$$

SKY/WX REPORTED AS FAIR MEANS FEW OR NO CLOUDS BELOW
12 THOUSAND FEET.



USA.gov is the U.S. government's official web portal to all federal, state and local government web resources and services.